Miscellaneous Local Product
Issued by NWS North Platte, NE

Home | Current Version | Previous Version | Text Only | Print | Product List | Glossary On
Versions: 1 2 3 4 5 6 7 8 9 10 11 12 13 14 15 16 17 18 19 20 21 22 23 24 25 26 27 28 29 30 31 32 33 34 35 36 37 38 39 40 41 42 43 44 45 46 47 48 49 50
360
AXUS43 KLBF 091110
MISLBF


WESTERN AND NORTH CENTRAL NEBRASKA HOURLY WEATHER ROUNDUP
NATIONAL WEATHER SERVICE NORTH PLATTE NE
500 AM CST TUE FEB 09 2016

NOTE: "FAIR" INDICATES FEW OR NO CLOUDS BELOW 12,000 FEET WITH NO
SIGNIFICANT WEATHER AND/OR OBSTRUCTIONS TO VISIBILITY.

NOTE: STATIONS NOT REPORTING VARIABLES SUCH AS SKY/WEATHER OR
PRESSURE ARE PROVIDED BY THE NEBRASKA DEPARTMENT OF
ROADS...RAWS...AND APRS NETWORKS...AND ARE NOT UNDER
NATIONAL WEATHER SERVICE QUALITY CONTROL.

...OBSERVATIONS IN AND NEAR THE EASTERN PANHANDLE OF NEBRASKA...

CITY           SKY/WX    TMP DP  RH WIND       PRES   REMARKS
PINE RIDGE     CLEAR     23  17  78 CALM      30.22R
CHADRON        CLEAR     31  25  78 NW10      30.23S WCI  22
ALLIANCE       CLEAR     28  23  81 W13       30.19R WCI  17
SIDNEY         CLEAR     32  25  75 NW17      30.21S WCI  21
CRESCENT LAKE    N/A     29  24  81 N8          N/A  WCI  21
BIG SPRINGS      N/A     31  27  84 W3          N/A
$$

...OBSERVATIONS IN NORTH CENTRAL NEBRASKA...

CITY           SKY/WX    TMP DP  RH WIND       PRES   REMARKS
VALENTINE      CLOUDY    27  17  66 N8        30.22S WCI  19
THEDFORD       CLOUDY    30  18  61 N12G17    30.19F WCI  21
AINSWORTH      CLOUDY    26  18  73 N13       30.21S WCI  15
O`NEILL        CLOUDY    21  12  68 N12       30.19R WCI   9
ORD            MOCLDY    23  16  74 N14G24    30.18R WCI  11
BROKEN BOW     CLOUDY    28  18  66 N16       30.16R WCI  16
VALENTINE NWR    N/A     28  16  61 N13G26      N/A  WCI  17
BUTTE            N/A     19  12  73 N10         N/A  WCI   7
HALSEY           N/A     29  16  57 NW9G16      N/A  WCI  21
CHAMBERS         N/A     20   8  59 W8          N/A  WCI  10
EWING            N/A     18  12  77 N13G23      N/A  WCI   5
$$

...OBSERVATIONS IN SOUTHWEST NEBRASKA AND FAR NORTHEAST COLORADO...

CITY           SKY/WX    TMP DP  RH WIND       PRES   REMARKS
WRAY           FAIR      37  27  67 W15       30.20F WCI  28
HOLYOKE        FAIR      41  28  60 NW15G22   30.20R
IMPERIAL       CLOUDY    31  24  75 NW10      30.20S WCI  22
OGALLALA       CLEAR     21  18  89 CALM      30.22R
NORTH PLATTE   CLOUDY    25  17  72 NW8       30.20R WCI  16
MCCOOK         MOCLDY    28  19  69 W12       30.21S WCI  18
LEXINGTON      CLOUDY    26  18  69 NW8       30.19R WCI  18
PAXTON           N/A     23  20  87 CALM        N/A
STAPLETON        N/A     25  16  68 CALM        N/A
GOTHENBURG       N/A     28  18  66 NW6         N/A  WCI  22
CALLAWAY         N/A     27  17  66 N8          N/A  WCI  19
$$

...OBSERVATIONS IN CENTRAL LINCOLN COUNTY AREA...

CITY           SKY/WX    TMP DP  RH WIND       PRES   REMARKS
N.P. AIRPORT   CLOUDY    25  17  72 NW8       30.20R WCI  16
N.P. DOWNTOWN    N/A     29  20  68 W3          N/A
N.P. SOUTHEAST   N/A     29  19  64 NW3         N/A
N.P. HILLCREST   N/A     25  20  79 NW3         N/A
$$

...SOME OBSERVATIONS FROM AROUND THE REGION...

CITY           SKY/WX    TMP DP  RH WIND       PRES   REMARKS
DENVER         CLOUDY    28  18  66 S9        30.29R WCI  19
LARAMIE        CLOUDY    17  12  80 E10       30.34S WCI   5
CHEYENNE       CLEAR     36  18  48 NW18G25   30.27F WCI  26
SCOTTSBLUFF    CLEAR     31  24  75 NW14      30.24R WCI  21
RAPID CITY     PTCLDY    23  14  68 N6        30.22S WCI  16
BISMARCK       CLOUDY    25  12  58 W5        30.26F WCI  19
PIERRE         CLOUDY    23  13  65 N14       30.27R WCI  11
WINNER         CLOUDY    24  14  65 N12       30.25R WCI  13
SIOUX FALLS    CLEAR      8   0  69 N21       30.17R WCI -12
OMAHA          PTCLDY    15   8  73 N14       30.15R WCI   0
GRAND ISLAND   CLEAR     20  12  71 N12       30.20R WCI   8
KANSAS CITY    CLEAR     23   9  55 N18       30.06R WCI   9
WICHITA        PTCLDY    30  18  60 NW10      30.16S WCI  21
OKLAHOMA CITY  PTCLDY    32  15  49 NW7       30.21F WCI  26
LIBERAL        CLEAR     30  21  69 W9        30.25S WCI  22
HAYS           CLOUDY    36  18  48 NW12      30.20R WCI  27
GOODLAND       CLOUDY    22  18  85 NW8       30.21S WCI  12
$$




USA.gov is the U.S. government's official web portal to all federal, state and local government web resources and services.